Latest Weather Observations for St Kilda Harbour RMYS

IDV60901

Issued at 5:55 am EST Saturday 20 September 2014 (issued every 10 minutes, with the page automatically refreshed every 10 minutes)

About weather observations | Map of Melbourne area stations | Latest observations for Melbourne area | Other Formats
Station Details ID: 086220 Name: ST KILDA HARBOUR - RMYS Lat: -37.86 Lon: 144.96 Height: 6.4 m
Data from the previous 72 hours. | See also: Recent months for locations in Victoria
Date/Time
EST
Tmp

°C
App
Tmp
°C
Dew
Point
°C
Rel
Hum
%
Delta-T

°C
Wind Press
QNH
hPa
Press
MSL
hPa
Rain
since
9 am
mm
Dir
 
Spd
km/h
Gust
km/h
Spd
kts
Gust
kts
20/05:30am - - - - - SSW 19 22 10 12 - - -
20/05:00am - - - - - WSW 22 26 12 14 - - -
20/04:30am - - - - - WSW 20 26 11 14 - - -
20/04:00am - - - - - WSW 19 22 10 12 - - -
20/03:30am - - - - - WSW 22 26 12 14 - - -
20/03:00am - - - - - SW 20 22 11 12 - - -
20/02:30am - - - - - WSW 17 22 9 12 - - -
20/02:00am - - - - - SSW 30 39 16 21 - - -
20/01:57am - - - - - SSW 28 39 15 21 - - -
20/01:30am - - - - - SW 15 19 8 10 - - -
20/01:00am - - - - - WSW 11 15 6 8 - - -
20/12:30am - - - - - WSW 22 26 12 14 - - -
20/12:00am - - - - - SW 20 24 11 13 - - -
 
Date/Time
EST
Tmp

°C
App
Tmp
°C
Dew
Point
°C
Rel
Hum
%
Delta-T

°C
Wind Press
QNH
hPa
Press
MSL
hPa
Rain
since
9 am
mm
Dir
 
Spd
km/h
Gust
km/h
Spd
kts
Gust
kts
19/11:30pm - - - - - SW 20 22 11 12 - - -
19/11:00pm - - - - - SW 20 24 11 13 - - -
19/10:30pm - - - - - SW 20 24 11 13 - - -
19/10:00pm - - - - - SW 20 24 11 13 - - -
19/09:30pm - - - - - SSW 24 33 13 18 - - -
19/09:00pm - - - - - S 24 30 13 16 - - -
19/08:30pm - - - - - S 26 30 14 16 - - -
19/08:00pm - - - - - S 26 32 14 17 - - -
19/07:30pm - - - - - S 26 30 14 16 - - -
19/07:00pm - - - - - S 24 28 13 15 - - -
19/06:30pm - - - - - S 22 24 12 13 - - -
19/06:00pm - - - - - S 24 28 13 15 - - -
19/05:30pm - - - - - S 24 28 13 15 - - -
19/05:00pm - - - - - S 22 26 12 14 - - -
19/04:30pm - - - - - S 19 22 10 12 - - -
19/04:00pm - - - - - S 22 26 12 14 - - -
19/03:30pm - - - - - S 22 26 12 14 - - -
19/03:00pm - - - - - S 20 26 11 14 - - -
19/02:30pm - - - - - S 20 24 11 13 - - -
19/02:00pm - - - - - SSE 15 19 8 10 - - -
19/01:30pm - - - - - SSE 11 15 6 8 - - -
19/01:00pm - - - - - SSE 22 26 12 14 - - -
19/12:30pm - - - - - S 15 20 8 11 - - -
19/12:00pm - - - - - SSW 17 20 9 11 - - -
19/11:30am - - - - - SW 20 26 11 14 - - -
19/11:00am - - - - - SW 22 28 12 15 - - -
19/10:30am - - - - - SW 26 30 14 16 - - -
19/10:00am - - - - - SW 22 28 12 15 - - -
19/09:30am - - - - - WSW 28 33 15 18 - - -
19/09:00am - - - - - W 13 19 7 10 - - -
19/08:30am - - - - - W 15 20 8 11 - - -
19/08:00am - - - - - NW 13 19 7 10 - - -
19/07:30am - - - - - NW 13 19 7 10 - - -
19/07:00am - - - - - WNW 17 24 9 13 - - -
19/06:30am - - - - - WNW 15 20 8 11 - - -
19/06:00am - - - - - W 22 26 12 14 - - -
19/05:30am - - - - - WSW 22 28 12 15 - - -
19/05:00am - - - - - WSW 20 24 11 13 - - -
19/04:30am - - - - - WSW 26 30 14 16 - - -
19/04:00am - - - - - WSW 22 28 12 15 - - -
19/03:30am - - - - - W 15 20 8 11 - - -
19/03:00am - - - - - WNW 9 11 5 6 - - -
19/02:30am - - - - - W 11 15 6 8 - - -
19/02:00am - - - - - W 13 17 7 9 - - -
19/01:30am - - - - - WSW 17 20 9 11 - - -
19/01:00am - - - - - W 15 20 8 11 - - -
19/12:30am - - - - - W 17 20 9 11 - - -
19/12:00am - - - - - W 19 20 10 11 - - -
 
Date/Time
EST
Tmp

°C
App
Tmp
°C
Dew
Point
°C
Rel
Hum
%
Delta-T

°C
Wind Press
QNH
hPa
Press
MSL
hPa
Rain
since
9 am
mm
Dir
 
Spd
km/h
Gust
km/h
Spd
kts
Gust
kts
18/11:30pm - - - - - W 19 20 10 11 - - -
18/11:00pm - - - - - W 19 22 10 12 - - -
18/10:30pm - - - - - W 22 26 12 14 - - -
18/10:00pm - - - - - WSW 24 26 13 14 - - -
18/09:30pm - - - - - SW 28 33 15 18 - - -
18/09:00pm - - - - - SSW 26 32 14 17 - - -
18/08:30pm - - - - - SSW 28 32 15 17 - - -
18/08:00pm - - - - - SSW 33 39 18 21 - - -
18/07:30pm - - - - - SSW 33 41 18 22 - - -
18/07:00pm - - - - - SSW 32 41 17 22 - - -
18/06:30pm - - - - - S 30 35 16 19 - - -
18/06:00pm - - - - - SSW 32 39 17 21 - - -
18/05:30pm - - - - - S 32 37 17 20 - - -
18/05:00pm - - - - - S 28 33 15 18 - - -
18/04:30pm - - - - - S 28 33 15 18 - - -
18/04:00pm - - - - - S 26 32 14 17 - - -
18/03:30pm - - - - - S 32 37 17 20 - - -
18/03:00pm - - - - - SSW 30 35 16 19 - - -
18/02:30pm - - - - - SSW 26 33 14 18 - - -
18/02:00pm - - - - - SSW 28 32 15 17 - - -
18/01:36pm - - - - - SW 35 39 19 21 - - -
18/01:30pm - - - - - SSW 13 20 7 11 - - -
18/01:00pm - - - - - SW 11 15 6 8 - - -
18/12:30pm - - - - - SSW 19 26 10 14 - - -
18/12:00pm - - - - - WSW 15 19 8 10 - - -
18/11:30am - - - - - SW 20 28 11 15 - - -
18/11:00am - - - - - SW 26 32 14 17 - - -
18/10:30am - - - - - WSW 22 26 12 14 - - -
18/10:00am - - - - - SW 20 24 11 13 - - -
18/09:30am - - - - - SSW 28 39 15 21 - - -
18/09:00am - - - - - WSW 28 37 15 20 - - -
18/08:30am - - - - - WSW 30 37 16 20 - - -
18/08:00am - - - - - W 17 20 9 11 - - -
18/07:30am - - - - - W 22 32 12 17 - - -
18/07:00am - - - - - W 17 26 9 14 - - -
18/06:30am - - - - - W 26 32 14 17 - - -
18/06:00am - - - - - W 26 33 14 18 - - -
18/05:30am - - - - - W 28 32 15 17 - - -
18/05:00am - - - - - W 24 30 13 16 - - -
18/04:30am - - - - - W 28 33 15 18 - - -
18/04:00am - - - - - W 32 37 17 20 - - -
18/03:30am - - - - - W 28 37 15 20 - - -
18/03:00am - - - - - W 26 32 14 17 - - -
18/02:30am - - - - - W 32 41 17 22 - - -
18/02:00am - - - - - W 28 35 15 19 - - -
18/01:30am - - - - - W 32 37 17 20 - - -
18/01:00am - - - - - W 33 39 18 21 - - -
18/12:30am - - - - - W 33 43 18 23 - - -
18/12:00am - - - - - W 30 37 16 20 - - -
 
Date/Time
EST
Tmp

°C
App
Tmp
°C
Dew
Point
°C
Rel
Hum
%
Delta-T

°C
Wind Press
QNH
hPa
Press
MSL
hPa
Rain
since
9 am
mm
Dir
 
Spd
km/h
Gust
km/h
Spd
kts
Gust
kts
17/11:30pm - - - - - W 33 41 18 22 - - -
17/11:00pm - - - - - W 32 39 17 21 - - -
17/10:30pm - - - - - W 28 37 15 20 - - -
17/10:00pm - - - - - W 32 39 17 21 - - -
17/09:30pm - - - - - W 35 41 19 22 - - -
17/09:00pm - - - - - W 30 39 16 21 - - -
17/08:30pm - - - - - WSW 33 39 18 21 - - -
17/08:00pm - - - - - WSW 39 50 21 27 - - -
17/07:30pm - - - - - WSW 37 44 20 24 - - -
17/07:00pm - - - - - WSW 39 46 21 25 - - -
17/06:30pm - - - - - WSW 26 35 14 19 - - -
17/06:11pm - - - - - SW 33 54 18 29 - - -
17/06:00pm - - - - - SW 37 44 20 24 - - -
17/05:30pm - - - - - SSW 33 39 18 21 - - -
17/05:00pm - - - - - SW 41 57 22 31 - - -
17/04:30pm - - - - - SSW 30 39 16 21 - - -
17/04:00pm - - - - - SW 22 28 12 15 - - -
17/03:30pm - - - - - SSW 35 43 19 23 - - -
17/03:25pm - - - - - SSW 37 43 20 23 - - -
17/03:11pm - - - - - SW 33 52 18 28 - - -
17/03:00pm - - - - - SW 35 41 19 22 - - -
17/02:59pm - - - - - SW 35 41 19 22 - - -
17/02:33pm - - - - - WSW 56 74 30 40 - - -
17/02:30pm - - - - - WSW 59 76 32 41 - - -
17/02:20pm - - - - - WSW 52 74 28 40 - - -
17/02:00pm - - - - - SW 50 63 27 34 - - -
17/01:30pm - - - - - WSW 46 59 25 32 - - -
17/01:00pm - - - - - WSW 41 46 22 25 - - -
17/12:30pm - - - - - WSW 50 61 27 33 - - -
17/12:12pm - - - - - WSW 46 74 25 40 - - -
17/12:00pm - - - - - W 41 50 22 27 - - -
17/11:30am - - - - - WSW 46 54 25 29 - - -
17/11:08am - - - - - WSW 46 70 25 38 - - -
17/11:00am - - - - - WSW 46 56 25 30 - - -
17/10:30am - - - - - WSW 44 54 24 29 - - -
17/10:00am - - - - - W 37 44 20 24 - - -
17/09:30am - - - - - W 30 37 16 20 - - -
17/09:00am - - - - - W 26 32 14 17 - - -
17/08:30am - - - - - W 26 33 14 18 - - -
17/08:00am - - - - - WNW 20 26 11 14 - - -
17/07:30am - - - - - WNW 26 32 14 17 - - -
17/07:00am - - - - - WNW 28 35 15 19 - - -
17/06:30am - - - - - W 30 39 16 21 - - -
17/06:00am - - - - - W 30 41 16 22 - - -

Latest Capital City Observations: Canberra | Sydney | Melbourne | Brisbane | Adelaide | Perth | Hobart | Darwin

Other Formats:

Comma delimited format used in spreadsheet applications
http://www.bom.gov.au/fwo/IDV60901/IDV60901.95864.axf

JavaScript Object Notation format (JSON) in row-major order
http://www.bom.gov.au/fwo/IDV60901/IDV60901.95864.json